• In Austria
  • List of Countries
  • For 7 days
  • Water Temperature
  • Satellite Maps
  • Weather Map
  • News
  • Weather Widgets
  • user-avatar
    Login

    Hourly Weather Bryli

    Today, 22 May, Tuesday

    Time Temperature Precipitation Wind Pressure Humidity
    00:00 +10°C° 0 mm 2 mps 750 mmHg 82%
    01:00 +9°C° 0 mm 2 mps 750 mmHg 82%
    02:00 +9°C° 0 mm 2 mps 749 mmHg 85%
    03:00 +9°C° 0 mm 2 mps 749 mmHg 84%
    04:00 +10°C° 0 mm 2 mps 749 mmHg 84%
    05:00 +10°C° 0 mm 3 mps 749 mmHg 84%
    06:00 +10°C° 0.2 mm 3 mps 749 mmHg 84%
    07:00 +11°C° 0.2 mm 3 mps 749 mmHg 84%
    08:00 +12°C° 0.2 mm 3 mps 749 mmHg 84%
    09:00 +12°C° 0.5 mm 3 mps 749 mmHg 86%
    10:00 +12°C° 0.5 mm 3 mps 749 mmHg 88%
    11:00 +12°C° 0.5 mm 3 mps 749 mmHg 90%
    12:00 +13°C° 0.2 mm 3 mps 748 mmHg 89%
    13:00 +13°C° 0.2 mm 3 mps 748 mmHg 88%
    14:00 +14°C° 0.2 mm 3 mps 748 mmHg 86%
    15:00 +16°C° 0.1 mm 3 mps 748 mmHg 85%
    16:00 +16°C° 0.1 mm 2 mps 748 mmHg 84%
    17:00 +16°C° 0.1 mm 2 mps 748 mmHg 83%
    18:00 +16°C° 0 mm 2 mps 748 mmHg 86%
    19:00 +15°C° 0 mm 2 mps 748 mmHg 89%
    20:00 +14°C° 0 mm 2 mps 747 mmHg 92%
    21:00 +13°C° 0 mm 2 mps 748 mmHg 93%
    22:00 +13°C° 0 mm 2 mps 748 mmHg 94%
    23:00 +12°C° 0 mm 2 mps 748 mmHg 95%

    Tomorrow, 23 May, Wednesday

    Time Temperature Precipitation Wind Pressure Humidity
    00:00 +12°C° 0 mm 2 mps 748 mmHg 95%
    01:00 +12°C° 0 mm 2 mps 748 mmHg 95%
    02:00 +10°C° 0 mm 2 mps 748 mmHg 95%
    03:00 +10°C° 0 mm 2 mps 748 mmHg 95%
    04:00 +10°C° 0 mm 3 mps 748 mmHg 95%
    05:00 +10°C° 0 mm 3 mps 748 mmHg 95%
    06:00 +12°C° 0.1 mm 3 mps 748 mmHg 91%
    07:00 +14°C° 0.1 mm 3 mps 748 mmHg 88%
    08:00 +17°C° 0.1 mm 4 mps 748 mmHg 84%
    09:00 +18°C° 0.3 mm 4 mps 748 mmHg 80%
    10:00 +20°C° 0.3 mm 4 mps 748 mmHg 76%
    11:00 +21°C° 0.3 mm 5 mps 748 mmHg 72%
    12:00 +21°C° 0.6 mm 5 mps 748 mmHg 71%
    13:00 +22°C° 0.6 mm 5 mps 747 mmHg 70%
    14:00 +22°C° 0.6 mm 5 mps 747 mmHg 69%
    15:00 +21°C° 0.6 mm 4 mps 747 mmHg 72%
    16:00 +21°C° 0.6 mm 3 mps 747 mmHg 75%
    17:00 +21°C° 0.6 mm 3 mps 747 mmHg 78%
    18:00 +19°C° 0.3 mm 2 mps 747 mmHg 81%
    19:00 +18°C° 0.3 mm 2 mps 746 mmHg 84%
    20:00 +16°C° 0.3 mm 1 mps 746 mmHg 88%
    21:00 +16°C° 0 mm 1 mps 746 mmHg 89%
    22:00 +15°C° 0 mm 1 mps 746 mmHg 90%
    23:00 +14°C° 0 mm 1 mps 747 mmHg 91%

    Day after tomorrow, 24 May, Thursday

    Time Temperature Precipitation Wind Pressure Humidity
    00:00 +13°C° 0 mm 1 mps 747 mmHg 91%
    01:00 +13°C° 0 mm 1 mps 747 mmHg 92%
    02:00 +12°C° 0 mm 1 mps 746 mmHg 93%
    03:00 +12°C° 0 mm 2 mps 747 mmHg 94%
    04:00 +12°C° 0 mm 2 mps 747 mmHg 94%
    05:00 +12°C° 0 mm 2 mps 747 mmHg 95%
    06:00 +14°C° 0 mm 2 mps 747 mmHg 92%
    07:00 +14°C° 0 mm 3 mps 747 mmHg 88%
    08:00 +17°C° 0 mm 3 mps 747 mmHg 84%
    09:00 +18°C° 0.1 mm 3 mps 747 mmHg 79%
    10:00 +19°C° 0.1 mm 4 mps 747 mmHg 74%
    11:00 +21°C° 0.1 mm 4 mps 747 mmHg 69%
    12:00 +21°C° 0.3 mm 4 mps 747 mmHg 68%
    13:00 +21°C° 0.3 mm 4 mps 747 mmHg 67%
    14:00 +22°C° 0.3 mm 5 mps 747 mmHg 66%
    15:00 +21°C° 0.3 mm 5 mps 747 mmHg 68%
    16:00 +21°C° 0.3 mm 5 mps 747 mmHg 70%
    17:00 +21°C° 0.3 mm 4 mps 747 mmHg 72%
    18:00 +19°C° 0.2 mm 4 mps 747 mmHg 76%
    19:00 +18°C° 0.2 mm 4 mps 747 mmHg 81%
    20:00 +17°C° 0.2 mm 4 mps 747 mmHg 85%
    21:00 +15°C° 0.3 mm 4 mps 747 mmHg 86%
    22:00 +15°C° 0.3 mm 4 mps 748 mmHg 88%
    23:00 +14°C° 0.3 mm 5 mps 748 mmHg 90%

    25 May, Friday

    Time Temperature Precipitation Wind Pressure Humidity
    00:00 +14°C° 0.1 mm 5 mps 748 mmHg 91%
    01:00 +13°C° 0.1 mm 5 mps 748 mmHg 93%
    02:00 +13°C° 0.1 mm 5 mps 748 mmHg 94%
    03:00 +13°C° 0.2 mm 5 mps 749 mmHg 93%
    04:00 +12°C° 0.2 mm 5 mps 749 mmHg 92%
    05:00 +12°C° 0.2 mm 5 mps 749 mmHg 92%
    06:00 +13°C° 0 mm 6 mps 750 mmHg 88%
    07:00 +13°C° 0 mm 6 mps 750 mmHg 85%
    08:00 +14°C° 0 mm 6 mps 751 mmHg 82%
    09:00 +15°C° 0 mm 6 mps 751 mmHg 77%
    10:00 +17°C° 0 mm 6 mps 751 mmHg 72%
    11:00 +19°C° 0 mm 6 mps 752 mmHg 66%
    12:00 +20°C° 0 mm 6 mps 752 mmHg 64%
    13:00 +20°C° 0 mm 6 mps 752 mmHg 61%
    14:00 +21°C° 0 mm 6 mps 752 mmHg 58%
    15:00 +20°C° 0 mm 5 mps 752 mmHg 60%
    16:00 +20°C° 0 mm 5 mps 752 mmHg 61%
    17:00 +20°C° 0 mm 4 mps 752 mmHg 62%
    18:00 +18°C° 0 mm 4 mps 752 mmHg 67%
    19:00 +15°C° 0 mm 4 mps 752 mmHg 71%
    20:00 +13°C° 0 mm 4 mps 752 mmHg 75%
    21:00 +12°C° 0 mm 4 mps 753 mmHg 76%
    22:00 +11°C° 0 mm 4 mps 753 mmHg 76%
    23:00 +11°C° 0 mm 4 mps 754 mmHg 77%

    26 May, Saturday

    Time Temperature Precipitation Wind Pressure Humidity
    00:00 +10°C° 0 mm 3 mps 754 mmHg 78%
    01:00 +9°C° 0 mm 3 mps 754 mmHg 80%
    02:00 +9°C° 0 mm 3 mps 755 mmHg 81%
    03:00 +8°C° 0 mm 3 mps 755 mmHg 81%
    04:00 +8°C° 0 mm 3 mps 755 mmHg 81%
    05:00 +8°C° 0 mm 3 mps 755 mmHg 81%
    06:00 +10°C° 0 mm 4 mps 756 mmHg 76%
    07:00 +11°C° 0 mm 4 mps 756 mmHg 72%
    08:00 +13°C° 0 mm 4 mps 756 mmHg 67%
    09:00 +14°C° 0 mm 4 mps 756 mmHg 64%
    10:00 +15°C° 0 mm 5 mps 756 mmHg 60%
    11:00 +16°C° 0 mm 5 mps 756 mmHg 56%
    12:00 +17°C° 0 mm 5 mps 756 mmHg 56%
    13:00 +17°C° 0 mm 5 mps 756 mmHg 55%
    14:00 +19°C° 0 mm 5 mps 756 mmHg 55%
    15:00 +19°C° 0 mm 4 mps 755 mmHg 57%
    16:00 +19°C° 0 mm 4 mps 755 mmHg 59%
    17:00 +19°C° 0 mm 4 mps 755 mmHg 61%
    18:00 +17°C° 0 mm 3 mps 755 mmHg 67%
    19:00 +14°C° 0 mm 3 mps 755 mmHg 72%
    20:00 +14°C° 0 mm 2 mps 755 mmHg 77%
    21:00 +13°C° 0 mm 2 mps 755 mmHg 79%
    22:00 +12°C° 0 mm 2 mps 755 mmHg 80%
    23:00 +10°C° 0 mm 2 mps 755 mmHg 81%

    27 May, Sunday

    Time Temperature Precipitation Wind Pressure Humidity
    00:00 +9°C° 0 mm 2 mps 755 mmHg 83%
    01:00 +9°C° 0 mm 2 mps 755 mmHg 84%
    02:00 +8°C° 0 mm 2 mps 755 mmHg 86%
    03:00 +8°C° 0 mm 2 mps 755 mmHg 86%
    04:00 +9°C° 0 mm 2 mps 755 mmHg 86%
    05:00 +9°C° 0 mm 2 mps 755 mmHg 86%
    06:00 +10°C° 0 mm 2 mps 755 mmHg 82%
    07:00 +13°C° 0 mm 2 mps 755 mmHg 77%
    08:00 +15°C° 0 mm 2 mps 755 mmHg 72%
    09:00 +16°C° 0 mm 2 mps 755 mmHg 67%
    10:00 +17°C° 0 mm 2 mps 755 mmHg 62%
    11:00 +18°C° 0 mm 3 mps 755 mmHg 57%
    12:00 +19°C° 0 mm 2 mps 755 mmHg 55%
    13:00 +19°C° 0 mm 2 mps 754 mmHg 54%
    14:00 +20°C° 0 mm 2 mps 754 mmHg 52%
    15:00 +20°C° 0 mm 2 mps 754 mmHg 53%
    16:00 +21°C° 0 mm 1 mps 754 mmHg 54%
    17:00 +21°C° 0 mm 1 mps 753 mmHg 55%
    18:00 +19°C° 0 mm 1 mps 753 mmHg 61%
    19:00 +16°C° 0 mm 1 mps 753 mmHg 67%
    20:00 +14°C° 0 mm 1 mps 753 mmHg 73%
    21:00 +14°C° 0 mm 1 mps 753 mmHg 75%
    22:00 +13°C° 0 mm 1 mps 754 mmHg 78%
    23:00 +12°C° 0 mm 1 mps 754 mmHg 80%
    Show more